Weather in Bolshoy Gondyr

Russia / Perm Krai     56°22′36″N   55°19′58″E
temp.,
°C
wind,
m/s
gust,
m/s
humid.,
%
clouds,
%
prec.,
mm/h
press.,
hPa
HPBL,
m
7 march, sun
sun723:00−16wsw239770 0.1 101223
02:00−16wsw129893 0.1 101222
05:00−16sw229796 0.2 101121
08:00−17wsw239796 0.1 101042
11:00−14sw239392 0.2 1010251
14:00−11sw2386100 0.1 1009595
17:00−10ssw3492100 0.3 1008418
20:00−15sw359692 0.2 100988
8 march, mon
mon823:00−18s2310069 0.2 100920
02:00−18sse3310088 0.0 100738
05:00−16se5119694 0.1 1004276
08:00−14sse61295100 0.9 1001528
11:00−9sse71293100 1.7 998724
14:00−5s81294100 0.9 995872
17:00−5sw101582100 2.1 9951138
20:00−7sw91691100 0.3 9961078
9 march, tue
tue923:00−7wsw101790100 1.0 999935
02:00−9sw61293100 0.1 1002466
05:00−14ssw3698100 0.2 100397
08:00−15s2297100 0.0 100220
11:00−10ssw1294100 0.8 1002186
14:00−7wnw3590100 1.6 1003600
17:00−7wnw4687100 1.8 1006833
20:00−10w3495100 0.1 100764
10 march, wed
wed1023:00−14nnw229696 0.2 100920
02:00−17n349772 0.0 100942
05:00−19n479682 0.1 1010142
08:00−23n479595 0.0 1011155
11:00−22n589095 0.0 1012263
14:00−18n588757 0.0 1013420
17:00−18nnw578333 0.0 1013502
20:00−23nnw46900 0.0 101581
11 march, thu
thu1123:00−25nw23890 0.0 101720
02:00−27wnw33970 0.0 101720
05:00−27w34981 0.0 101732
08:00−26wsw479977 0.0 1017140
11:00−22wsw589789 0.0 1017338
14:00−18wsw5894100 0.1 1017497
17:00−16wsw5891100 0.3 1018590
20:00−16wsw4995100 0.1 1018372